Flag for Antigua and Barbuda Weather past 2 weeks in Saint John's, Antigua and Barbuda

Now
81 °F

Passing clouds.


Feels Like: 85 °F
Forecast: 80 / 85 °F
Wind: 13 mph from East

Location: Vc Bird International Antigua Airport

Current Time: Aug 28, 2014 at 2:09:58 AM

Latest Report: Aug 28, 2014 at 1:00 AM


Visibility: N/A

Pressure: 29.98 "Hg

Humidity: 79%

Dew point: 73 °F

Location of Saint John'sLocation

Historic Weather in Saint John's — Graph

°F

Saint John's temperature yesterday

Maximum temperature yesterday: 88 °F (at 1:00 PM)
Minimum temperature yesterday: 77 °F (at 7:28 PM)
Average temperature yesterday: 83 °F

Past Weeks' High & Low Weather Summary

 TemperatureHumidityPressure
High88 °F (Aug 20, 11:00 AM)94% (Aug 16, 5:00 AM)30.07 "Hg (Aug 16, 5:00 AM)
Low77 °F (Aug 16, 7:00 AM)59% (Aug 24, 12:00 PM)29.86 "Hg (Aug 21, 3:00 PM)
Average83 °F77%29.97 "Hg
* Reported Aug 13 1:00 AM — Aug 28 1:00 AM, Saint John's, Weather by CustomWeather, © 2014

Note: Actual official high and low records may vary slightly from our data, if they occured in-between our weather recording intervals... More about our weather records

Advertising

Saint John's weather history for previous 24 hours

 ConditionsComfort  
Time TempWeatherWind HumidityBarometerVisibility
1:00 AM
Aug 28
81 °FPassing clouds.13 mph79%29.98 "HgN/A
12:00 AM81 °FPassing clouds.14 mph79%30.01 "HgN/A
11:00 PM
Aug 27
81 °FPassing clouds.14 mph79%30.01 "HgN/A
10:00 PM79 °FPassing clouds.13 mph84%30.01 "HgN/A
9:00 PM79 °FPassing clouds.9 mph89%30.01 "HgN/A
8:00 PM79 °FSprinkles. Partly cloudy.16 mph89%29.98 "Hg5 mi
7:28 PM77 °FSprinkles. Partly cloudy.15 mph94%29.98 "Hg5 mi
7:05 PM82 °FThunderstorms. Partly cloudy.15 mph79%29.98 "Hg2 mi
6:00 PM84 °FScattered clouds.14 mph74%29.95 "HgN/A
5:00 PM86 °FPassing clouds.15 mph70%29.95 "HgN/A
4:00 PM86 °FPassing clouds.16 mph70%29.95 "HgN/A
3:00 PM86 °FScattered clouds.16 mph70%29.95 "HgN/A
2:00 PM86 °FScattered clouds.17 mph70%29.95 "HgN/A
1:00 PM88 °FScattered clouds.17 mph66%29.98 "HgN/A
12:00 PM86 °FPassing clouds.15 mph70%29.98 "HgN/A
11:00 AM86 °FScattered clouds.17 mph75%30.01 "HgN/A
10:00 AM86 °FScattered clouds.17 mph75%30.01 "HgN/A
9:00 AM86 °FScattered clouds.16 mph70%30.01 "HgN/A
8:00 AM84 °FScattered clouds.16 mph74%30.01 "HgN/A
7:00 AM82 °FPartly sunny.17 mph79%29.98 "HgN/A
6:00 AM82 °FScattered clouds.15 mph79%29.98 "HgN/A
5:00 AM82 °FPassing clouds.16 mph74%29.95 "HgN/A
4:00 AM81 °FPassing clouds.9 mph84%29.95 "HgN/A
3:00 AM81 °FSprinkles. Passing clouds.13 mph84%29.98 "HgN/A
2:00 AM82 °FPassing clouds.10 mph79%29.98 "HgN/A
Weather by CustomWeather, © 2014

See weather overviewHow to use our weather pages